Location: ????????
(56.1167°N, 38.6333°E)
Time: 08:41:39
(UTC+00:00)

Landsat 7 - Pass Details

Date: 18 November 2025
Orbit: 680 x 682 km, 97.9° (Epoch: 14 December)

Event Time Altitude Azimuth Distance (km) Brightness Sun altitude
Rises 15:10:32 0° 176° (S) 3,035 7.2 -16.0°
Reaches altitude 10° 15:12:48 10° 180° (S) 2,124 6.4 -16.3°
Maximum altitude 15:17:22 56° 259° (W) 815 4.5 -16.9°
Drops below altitude 10° 15:21:59 10° 338° (NNW) 2,139 6.5 -17.5°
Sets 15:24:17 0° 343° (NNW) 3,058 7.2 -17.9°
